Time,TemperatureF,DewpointF,PressureIn,WindDirection,WindDirectionDegrees,WindSpeedMPH,WindSpeedGustMPH,Humidity,HourlyPrecipIn,Conditions,Clouds,dailyrainin,SoftwareType,DateUTC
2013-03-18 00:02:00,18.0,13.0,29.94,East,90,3.0,7.0,82,0.00,,,0.00,,2013-03-18 05:02:00,
2013-03-18 00:12:00,18.0,13.0,29.94,East,90,3.0,7.0,82,0.00,,,0.00,,2013-03-18 05:12:00,
2013-03-18 00:22:00,17.0,13.0,29.94,ESE,102,3.0,8.0,83,0.00,,,0.00,,2013-03-18 05:22:00,
2013-03-18 00:32:00,17.0,13.0,29.94,East,98,2.0,6.0,83,0.00,,,0.00,,2013-03-18 05:32:00,
2013-03-18 00:43:00,17.0,13.0,29.94,East,98,2.0,6.0,83,0.00,,,0.00,,2013-03-18 05:43:00,
2013-03-18 00:52:00,17.0,13.0,29.93,East,98,1.0,3.0,83,0.00,,,0.00,,2013-03-18 05:52:00,
2013-03-18 01:02:00,16.0,12.0,29.93,East,97,2.0,5.0,84,0.00,,,0.00,,2013-03-18 06:02:00,
2013-03-18 01:12:00,16.0,12.0,29.93,East,97,2.0,5.0,84,0.00,,,0.00,,2013-03-18 06:12:00,
2013-03-18 01:22:00,16.0,12.0,29.93,SE,124,1.0,4.0,84,0.00,,,0.00,,2013-03-18 06:22:00,
2013-03-18 01:32:00,15.0,11.0,29.92,East,88,2.0,6.0,85,0.00,,,0.00,,2013-03-18 06:32:00,
2013-03-18 01:42:00,15.0,11.0,29.92,East,88,2.0,6.0,85,0.00,,,0.00,,2013-03-18 06:42:00,
2013-03-18 01:52:00,16.0,12.0,29.91,East,101,2.0,6.0,85,0.00,,,0.00,,2013-03-18 06:52:00,
2013-03-18 02:02:00,16.0,13.0,29.90,East,92,3.0,7.0,86,0.00,,,0.00,,2013-03-18 07:02:00,
2013-03-18 02:12:00,16.0,13.0,29.90,East,92,3.0,7.0,86,0.00,,,0.00,,2013-03-18 07:12:00,
2013-03-18 02:22:00,16.0,13.0,29.90,East,98,2.0,4.0,86,0.00,,,0.00,,2013-03-18 07:22:00,
2013-03-18 02:32:00,16.0,13.0,29.89,East,95,2.0,5.0,87,0.00,,,0.00,,2013-03-18 07:32:00,
2013-03-18 02:42:00,16.0,13.0,29.89,East,95,2.0,5.0,87,0.00,,,0.00,,2013-03-18 07:42:00,
2013-03-18 02:53:00,16.0,13.0,29.89,ESE,107,2.0,5.0,87,0.00,,,0.00,,2013-03-18 07:53:00,
2013-03-18 03:02:00,15.0,12.0,29.88,ESE,110,1.0,4.0,88,0.00,,,0.00,,2013-03-18 08:02:00,
2013-03-18 03:12:00,15.0,12.0,29.88,ESE,110,1.0,4.0,88,0.00,,,0.00,,2013-03-18 08:12:00,
2013-03-18 03:22:00,16.0,13.0,29.86,East,86,2.0,4.0,89,0.00,,,0.00,,2013-03-18 08:22:00,
2013-03-18 03:32:00,16.0,13.0,29.84,East,88,3.0,5.0,89,0.00,,,0.00,,2013-03-18 08:32:00,
2013-03-18 03:43:00,16.0,13.0,29.84,East,88,3.0,5.0,89,0.00,,,0.00,,2013-03-18 08:43:00,
2013-03-18 03:52:00,16.0,14.0,29.84,East,97,2.0,6.0,90,0.00,,,0.00,,2013-03-18 08:52:00,
2013-03-18 04:02:00,16.0,13.0,29.83,East,100,2.0,5.0,89,0.00,,,0.00,,2013-03-18 09:02:00,
2013-03-18 04:12:00,16.0,13.0,29.83,East,100,2.0,5.0,89,0.00,,,0.00,,2013-03-18 09:12:00,
2013-03-18 04:22:00,16.0,13.0,29.83,East,94,1.0,6.0,89,0.00,,,0.00,,2013-03-18 09:22:00,
2013-03-18 04:33:00,16.0,14.0,29.82,ESE,118,1.0,3.0,90,0.00,,,0.00,,2013-03-18 09:33:00,
2013-03-18 04:43:00,16.0,14.0,29.82,ESE,118,1.0,3.0,90,0.00,,,0.00,,2013-03-18 09:43:00,
2013-03-18 04:53:00,16.0,14.0,29.80,East,98,2.0,3.0,91,0.00,,,0.00,,2013-03-18 09:53:00,
2013-03-18 05:03:00,16.0,14.0,29.80,East,98,2.0,6.0,91,0.00,,,0.00,,2013-03-18 10:03:00,
2013-03-18 05:12:00,16.0,14.0,29.80,East,98,2.0,6.0,91,0.00,,,0.00,,2013-03-18 10:12:00,
2013-03-18 05:23:00,17.0,15.0,29.79,East,98,3.0,6.0,91,0.00,,,0.00,,2013-03-18 10:23:00,
2013-03-18 05:33:00,17.0,15.0,29.78,ESE,123,3.0,7.0,90,0.00,,,0.00,,2013-03-18 10:33:00,
2013-03-18 05:42:00,17.0,15.0,29.78,ESE,123,3.0,7.0,90,0.00,,,0.00,,2013-03-18 10:42:00,
2013-03-18 05:53:00,17.0,15.0,29.78,East,92,4.0,7.0,91,0.00,,,0.00,,2013-03-18 10:53:00,
2013-03-18 06:03:00,17.0,15.0,29.78,East,90,2.0,6.0,91,0.00,,,0.00,,2013-03-18 11:03:00,
2013-03-18 06:12:00,17.0,15.0,29.78,East,90,2.0,6.0,91,0.00,,,0.00,,2013-03-18 11:12:00,
2013-03-18 06:22:00,18.0,16.0,29.77,SE,128,4.0,6.0,92,0.00,,,0.00,,2013-03-18 11:22:00,
2013-03-18 06:32:00,19.0,17.0,29.76,East,86,4.0,7.0,92,0.00,,,0.00,,2013-03-18 11:32:00,
2013-03-18 06:42:00,19.0,17.0,29.76,East,86,4.0,7.0,92,0.00,,,0.00,,2013-03-18 11:42:00,
2013-03-18 06:52:00,19.0,17.0,29.75,ESE,104,4.0,9.0,92,0.00,,,0.00,,2013-03-18 11:52:00,
2013-03-18 07:02:00,20.0,18.0,29.73,East,96,5.0,8.0,92,0.00,,,0.00,,2013-03-18 12:02:00,
2013-03-18 07:12:00,20.0,18.0,29.73,East,96,5.0,8.0,92,0.00,,,0.00,,2013-03-18 12:12:00,
2013-03-18 07:22:00,20.0,18.0,29.73,East,101,4.0,8.0,92,0.00,,,0.00,,2013-03-18 12:22:00,
2013-03-18 07:32:00,21.0,19.0,29.72,ESE,111,2.0,8.0,92,0.00,,,0.00,,2013-03-18 12:32:00,
2013-03-18 07:42:00,21.0,19.0,29.72,ESE,111,2.0,8.0,92,0.00,,,0.00,,2013-03-18 12:42:00,
2013-03-18 07:52:00,22.0,20.0,29.71,SSW,195,3.0,8.0,92,0.00,,,0.00,,2013-03-18 12:52:00,
2013-03-18 08:02:00,23.0,21.0,29.70,East,93,4.0,7.0,91,0.00,,,0.00,,2013-03-18 13:02:00,
2013-03-18 08:12:00,23.0,21.0,29.70,East,93,4.0,7.0,91,0.00,,,0.00,,2013-03-18 13:12:00,
2013-03-18 08:22:00,23.0,21.0,29.69,ESE,110,4.0,9.0,91,0.00,,,0.00,,2013-03-18 13:22:00,
2013-03-18 08:32:00,23.0,21.0,29.69,SE,126,5.0,7.0,91,0.00,,,0.00,,2013-03-18 13:32:00,
2013-03-18 08:42:00,23.0,21.0,29.69,SE,126,5.0,7.0,91,0.00,,,0.00,,2013-03-18 13:42:00,
2013-03-18 08:52:00,24.0,22.0,29.69,SE,134,3.0,8.0,91,0.00,,,0.00,,2013-03-18 13:52:00,
2013-03-18 09:02:00,24.0,22.0,29.69,SE,130,3.0,9.0,90,0.00,,,0.00,,2013-03-18 14:02:00,
2013-03-18 09:12:00,24.0,22.0,29.69,SE,130,3.0,9.0,90,0.00,,,0.00,,2013-03-18 14:12:00,
2013-03-18 09:22:00,24.0,22.0,29.67,ESE,111,4.0,8.0,90,0.00,,,0.00,,2013-03-18 14:22:00,
2013-03-18 09:32:00,25.0,22.0,29.67,East,91,3.0,11.0,90,0.00,,,0.00,,2013-03-18 14:32:00,
2013-03-18 09:42:00,25.0,22.0,29.67,East,91,3.0,11.0,90,0.00,,,0.00,,2013-03-18 14:42:00,
2013-03-18 09:52:00,25.0,22.0,29.67,ESE,121,2.0,7.0,90,0.00,,,0.00,,2013-03-18 14:52:00,
2013-03-18 10:02:00,26.0,23.0,29.66,East,98,3.0,12.0,89,0.00,,,0.00,,2013-03-18 15:02:00,
2013-03-18 10:12:00,26.0,23.0,29.66,East,98,3.0,12.0,89,0.00,,,0.00,,2013-03-18 15:12:00,
2013-03-18 10:22:00,26.0,23.0,29.65,East,89,4.0,6.0,90,0.00,,,0.00,,2013-03-18 15:22:00,
2013-03-18 10:33:00,26.0,23.0,29.64,ESE,122,4.0,7.0,90,0.00,,,0.00,,2013-03-18 15:33:00,
2013-03-18 10:43:00,26.0,23.0,29.64,ESE,122,4.0,7.0,90,0.00,,,0.00,,2013-03-18 15:43:00,
2013-03-18 10:52:00,26.0,23.0,29.64,East,91,3.0,7.0,90,0.00,,,0.00,,2013-03-18 15:52:00,
2013-03-18 11:03:00,27.0,25.0,29.62,ESE,104,3.0,5.0,92,0.00,,,0.00,,2013-03-18 16:03:00,
2013-03-18 11:12:00,27.0,25.0,29.62,ESE,104,3.0,5.0,92,0.00,,,0.00,,2013-03-18 16:12:00,
2013-03-18 11:22:00,27.0,25.0,29.61,East,94,3.0,7.0,93,0.00,,,0.00,,2013-03-18 16:22:00,
2013-03-18 11:32:00,27.0,25.0,29.61,ESE,109,2.0,5.0,93,0.00,,,0.00,,2013-03-18 16:32:00,
2013-03-18 11:42:00,27.0,25.0,29.61,ESE,109,2.0,5.0,93,0.00,,,0.00,,2013-03-18 16:42:00,
2013-03-18 11:53:00,27.0,25.0,29.60,ESE,118,2.0,5.0,93,0.00,,,0.00,,2013-03-18 16:53:00,
2013-03-18 12:02:00,28.0,26.0,29.60,SE,133,2.0,6.0,93,0.00,,,0.00,,2013-03-18 17:02:00,
2013-03-18 12:12:00,28.0,26.0,29.60,SE,133,2.0,6.0,93,0.00,,,0.00,,2013-03-18 17:12:00,
2013-03-18 12:22:00,28.0,26.0,29.59,SE,131,2.0,6.0,93,0.00,,,0.00,,2013-03-18 17:22:00,
2013-03-18 12:32:00,28.0,26.0,29.59,SSE,163,2.0,5.0,93,0.00,,,0.00,,2013-03-18 17:32:00,
2013-03-18 12:42:00,28.0,26.0,29.59,SSE,163,2.0,5.0,93,0.00,,,0.00,,2013-03-18 17:42:00,
2013-03-18 12:52:00,28.0,27.0,29.58,ESE,102,2.0,5.0,94,0.01,,,0.01,,2013-03-18 17:52:00,
2013-03-18 13:02:00,29.0,27.0,29.58,SSE,153,1.0,6.0,94,0.01,,,0.01,,2013-03-18 18:02:00,
2013-03-18 13:12:00,29.0,27.0,29.58,SSE,153,1.0,6.0,94,0.01,,,0.01,,2013-03-18 18:12:00,
2013-03-18 13:22:00,29.0,27.0,29.57,SSE,159,1.0,5.0,93,0.01,,,0.01,,2013-03-18 18:22:00,
2013-03-18 13:32:00,29.0,27.0,29.57,SSE,159,1.0,5.0,93,0.01,,,0.01,,2013-03-18 18:32:00,
2013-03-18 13:42:00,29.0,27.0,29.57,SSE,159,1.0,5.0,93,0.01,,,0.01,,2013-03-18 18:42:00,
2013-03-18 13:52:00,29.0,27.0,29.57,SSE,159,1.0,5.0,93,0.01,,,0.01,,2013-03-18 18:52:00,
2013-03-18 15:33:00,31.0,29.0,29.49,SSE,149,1.0,5.0,92,0.06,,,0.09,,2013-03-18 20:33:00,
2013-03-18 15:43:00,31.0,29.0,29.49,SSE,149,1.0,5.0,92,0.06,,,0.09,,2013-03-18 20:43:00,
2013-03-18 15:52:00,31.0,29.0,29.49,SE,128,2.0,4.0,91,0.05,,,0.10,,2013-03-18 20:52:00,
2013-03-18 16:02:00,31.0,29.0,29.49,South,176,2.0,4.0,92,0.03,,,0.10,,2013-03-18 21:02:00,
2013-03-18 16:12:00,31.0,29.0,29.49,South,176,2.0,4.0,92,0.03,,,0.10,,2013-03-18 21:12:00,
2013-03-18 16:22:00,31.0,29.0,29.48,SSW,196,3.0,6.0,92,0.03,,,0.11,,2013-03-18 21:22:00,
2013-03-18 16:32:00,30.0,28.0,29.48,South,169,4.0,9.0,92,0.03,,,0.12,,2013-03-18 21:32:00,
2013-03-18 16:42:00,30.0,28.0,29.48,South,169,4.0,9.0,92,0.03,,,0.12,,2013-03-18 21:42:00,
2013-03-18 16:53:00,30.0,28.0,29.48,SSW,196,4.0,7.0,93,0.02,,,0.12,,2013-03-18 21:53:00,
2013-03-18 17:03:00,31.0,29.0,29.49,WSW,240,1.0,7.0,94,0.03,,,0.13,,2013-03-18 22:03:00,
2013-03-18 17:13:00,31.0,29.0,29.49,WSW,240,1.0,7.0,94,0.03,,,0.13,,2013-03-18 22:13:00,
2013-03-18 17:23:00,31.0,29.0,29.48,SSW,209,2.0,5.0,93,0.02,,,0.13,,2013-03-18 22:23:00,
2013-03-18 17:33:00,30.0,28.0,29.48,WNW,285,2.0,5.0,93,0.01,,,0.13,,2013-03-18 22:33:00,
2013-03-18 17:42:00,30.0,28.0,29.48,WNW,285,2.0,5.0,93,0.01,,,0.13,,2013-03-18 22:42:00,
2013-03-18 17:53:00,28.0,25.0,29.48,WNW,290,10.0,16.0,89,0.02,,,0.14,,2013-03-18 22:53:00,
2013-03-18 18:02:00,25.0,22.0,29.49,West,273,11.0,19.0,90,0.01,,,0.14,,2013-03-18 23:02:00,
2013-03-18 18:12:00,25.0,22.0,29.49,West,273,11.0,19.0,90,0.01,,,0.14,,2013-03-18 23:12:00,
2013-03-18 18:22:00,23.0,20.0,29.50,WNW,286,10.0,20.0,88,0.01,,,0.14,,2013-03-18 23:22:00,
2013-03-18 18:32:00,22.0,19.0,29.50,WSW,257,12.0,17.0,89,0.01,,,0.14,,2013-03-18 23:32:00,
2013-03-18 18:42:00,22.0,19.0,29.50,WSW,257,12.0,17.0,89,0.01,,,0.14,,2013-03-18 23:42:00,
2013-03-18 18:53:00,22.0,19.0,29.51,WSW,253,7.0,18.0,88,0.00,,,0.14,,2013-03-18 23:53:00,
2013-03-18 19:02:00,21.0,18.0,29.51,West,281,8.0,20.0,89,0.00,,,0.14,,2013-03-19 00:02:00,
2013-03-18 19:12:00,21.0,18.0,29.51,West,281,8.0,20.0,89,0.00,,,0.14,,2013-03-19 00:12:00,
2013-03-18 19:22:00,21.0,19.0,29.52,WSW,250,8.0,17.0,91,0.00,,,0.14,,2013-03-19 00:22:00,
2013-03-18 19:32:00,21.0,18.0,29.52,West,263,11.0,18.0,87,0.00,,,0.14,,2013-03-19 00:32:00,
2013-03-18 19:42:00,21.0,18.0,29.52,West,263,11.0,18.0,87,0.00,,,0.14,,2013-03-19 00:42:00,
2013-03-18 19:52:00,20.0,17.0,29.53,West,268,13.0,26.0,87,0.00,,,0.14,,2013-03-19 00:52:00,
2013-03-18 20:02:00,19.0,16.0,29.54,WSW,252,11.0,24.0,87,0.00,,,0.14,,2013-03-19 01:02:00,
2013-03-18 20:12:00,19.0,16.0,29.54,WSW,252,11.0,24.0,87,0.00,,,0.14,,2013-03-19 01:12:00,
2013-03-18 20:22:00,18.0,15.0,29.54,West,270,12.0,22.0,86,0.00,,,0.14,,2013-03-19 01:22:00,
2013-03-18 20:32:00,18.0,15.0,29.54,NNW,338,8.0,20.0,86,0.00,,,0.14,,2013-03-19 01:32:00,
2013-03-18 20:42:00,18.0,15.0,29.54,NNW,338,8.0,20.0,86,0.00,,,0.14,,2013-03-19 01:42:00,
2013-03-18 20:52:00,17.0,13.0,29.54,WSW,239,9.0,18.0,85,0.00,,,0.14,,2013-03-19 01:52:00,
2013-03-18 21:02:00,17.0,13.0,29.55,West,278,9.0,22.0,85,0.00,,,0.14,,2013-03-19 02:02:00,
2013-03-18 21:12:00,17.0,13.0,29.55,West,278,9.0,22.0,85,0.00,,,0.14,,2013-03-19 02:12:00,
2013-03-18 21:22:00,17.0,14.0,29.55,West,267,9.0,19.0,87,0.00,,,0.14,,2013-03-19 02:22:00,
2013-03-18 21:32:00,16.0,13.0,29.55,West,261,10.0,19.0,88,0.00,,,0.14,,2013-03-19 02:32:00,
2013-03-18 21:42:00,16.0,13.0,29.55,West,261,10.0,19.0,88,0.00,,,0.14,,2013-03-19 02:42:00,
2013-03-18 21:52:00,16.0,13.0,29.56,West,259,10.0,18.0,89,0.00,,,0.14,,2013-03-19 02:52:00,
2013-03-18 22:02:00,16.0,13.0,29.56,NW,307,8.0,17.0,89,0.00,,,0.14,,2013-03-19 03:02:00,
2013-03-18 22:12:00,16.0,13.0,29.56,NW,307,8.0,17.0,89,0.00,,,0.14,,2013-03-19 03:12:00,
2013-03-18 22:22:00,16.0,13.0,29.56,West,269,9.0,19.0,88,0.00,,,0.14,,2013-03-19 03:22:00,
2013-03-18 22:33:00,16.0,13.0,29.57,West,261,9.0,19.0,88,0.00,,,0.14,,2013-03-19 03:33:00,
2013-03-18 22:43:00,16.0,13.0,29.57,West,261,9.0,19.0,88,0.00,,,0.14,,2013-03-19 03:43:00,
2013-03-18 22:54:00,16.0,13.0,29.57,WSW,256,11.0,18.0,87,0.00,,,0.14,,2013-03-19 03:54:00,
2013-03-18 23:03:00,16.0,13.0,29.57,WSW,251,12.0,19.0,87,0.00,,,0.14,,2013-03-19 04:03:00,
2013-03-18 23:13:00,16.0,13.0,29.57,WSW,251,12.0,19.0,87,0.00,,,0.14,,2013-03-19 04:13:00,
2013-03-18 23:23:00,16.0,13.0,29.57,WSW,242,9.0,18.0,86,0.00,,,0.14,,2013-03-19 04:23:00,
2013-03-18 23:33:00,15.0,12.0,29.57,West,277,9.0,19.0,86,0.00,,,0.14,,2013-03-19 04:33:00,
2013-03-18 23:43:00,15.0,12.0,29.57,West,277,9.0,19.0,86,0.00,,,0.14,,2013-03-19 04:43:00,
2013-03-18 23:52:00,15.0,12.0,29.56,West,261,11.0,23.0,86,0.00,,,0.14,,2013-03-19 04:52:00,